Year,Month,Day,Hour,Minute,Value (Times are PST for temperature in C)
2009,06,23,00,00,13.10
2009,06,23,00,06,13.00
2009,06,23,00,07,13.00
2009,06,23,00,08,13.00
2009,06,23,00,09,13.00
2009,06,23,00,10,13.00
2009,06,23,00,11,13.00
2009,06,23,00,12,13.00
2009,06,23,00,13,12.90
2009,06,23,00,14,12.90
2009,06,23,00,15,12.90
2009,06,23,00,16,12.90
2009,06,23,00,17,12.90
2009,06,23,00,18,12.90
2009,06,23,00,19,12.90
2009,06,23,00,20,12.90
2009,06,23,00,21,12.90
2009,06,23,00,22,12.90
2009,06,23,00,23,12.90
2009,06,23,00,24,12.90
2009,06,23,00,25,12.90
2009,06,23,00,26,12.90
2009,06,23,00,27,12.90
2009,06,23,00,28,12.80
2009,06,23,00,29,12.80
2009,06,23,00,30,12.80
2009,06,23,00,31,12.80
2009,06,23,00,32,12.80
2009,06,23,00,33,12.80
2009,06,23,00,34,12.80
2009,06,23,00,35,12.70
2009,06,23,00,36,12.70
2009,06,23,00,37,12.70
2009,06,23,00,38,12.60
2009,06,23,00,39,12.60
2009,06,23,00,40,12.60
2009,06,23,00,41,12.50
2009,06,23,00,42,12.50
2009,06,23,00,43,12.40
2009,06,23,00,44,12.40
2009,06,23,00,45,12.40
2009,06,23,00,46,12.30
2009,06,23,00,47,12.30
2009,06,23,00,48,12.30
2009,06,23,00,49,12.30
2009,06,23,00,50,12.30
2009,06,23,00,51,12.20
2009,06,23,00,52,12.20
2009,06,23,00,53,12.20
2009,06,23,00,54,12.10
2009,06,23,00,55,12.10
2009,06,23,00,56,12.10
2009,06,23,00,57,12.10
2009,06,23,00,58,12.10
2009,06,23,00,59,12.10
2009,06,23,01,00,12.10
2009,06,23,01,01,12.00
2009,06,23,01,02,12.00
2009,06,23,01,03,12.00
2009,06,23,01,04,12.00
2009,06,23,01,05,12.00
2009,06,23,01,06,12.00
2009,06,23,01,07,11.90
2009,06,23,01,08,11.90
2009,06,23,01,09,11.90
2009,06,23,01,10,11.90
2009,06,23,01,11,11.80
2009,06,23,01,12,11.80
2009,06,23,01,13,11.80
2009,06,23,01,14,11.80
2009,06,23,01,15,11.80
2009,06,23,01,16,11.80
2009,06,23,01,17,11.80
2009,06,23,01,18,11.80
2009,06,23,01,19,11.70
2009,06,23,01,20,11.70
2009,06,23,01,21,11.70
2009,06,23,01,22,11.70
2009,06,23,01,23,11.60
2009,06,23,01,24,11.60
2009,06,23,01,25,11.60
2009,06,23,01,26,11.60
2009,06,23,01,27,11.60
2009,06,23,01,28,11.60
2009,06,23,01,29,11.60
2009,06,23,01,30,11.60
2009,06,23,01,31,11.50
2009,06,23,01,32,11.40
2009,06,23,01,33,11.40
2009,06,23,01,34,11.40
2009,06,23,01,35,11.40
2009,06,23,01,36,11.40
2009,06,23,01,37,11.40
2009,06,23,01,38,11.40
2009,06,23,01,39,11.40
2009,06,23,01,40,11.40
2009,06,23,01,41,11.30
2009,06,23,01,42,11.30
2009,06,23,01,43,11.30
2009,06,23,01,44,11.30
2009,06,23,01,45,11.30
2009,06,23,01,46,11.30
2009,06,23,01,47,11.30
2009,06,23,01,48,11.20
2009,06,23,01,49,11.20
2009,06,23,01,50,11.20
2009,06,23,01,51,11.20
2009,06,23,01,52,11.20
2009,06,23,01,53,11.20
2009,06,23,01,54,11.20
2009,06,23,01,55,11.10
2009,06,23,01,56,11.10
2009,06,23,01,57,11.10
2009,06,23,01,58,11.10
2009,06,23,01,59,11.10
2009,06,23,02,00,11.10
2009,06,23,02,01,11.10
2009,06,23,02,02,11.10
2009,06,23,02,03,11.10
2009,06,23,02,04,11.10
2009,06,23,02,05,11.00
2009,06,23,02,06,10.90
2009,06,23,02,07,10.90
2009,06,23,02,08,10.90
2009,06,23,02,09,10.90
2009,06,23,02,10,10.90
2009,06,23,02,11,10.90
2009,06,23,02,12,10.90
2009,06,23,02,13,10.90
2009,06,23,02,14,10.90
2009,06,23,02,15,10.90
2009,06,23,02,16,10.90
2009,06,23,02,17,10.90
2009,06,23,02,18,10.90
2009,06,23,02,19,10.90
2009,06,23,02,20,10.90
2009,06,23,02,21,10.90
2009,06,23,02,22,10.90
2009,06,23,02,23,10.90
2009,06,23,02,24,10.90
2009,06,23,02,25,10.90
2009,06,23,02,26,10.90
2009,06,23,02,27,10.90
2009,06,23,02,28,10.90
2009,06,23,02,29,10.90
2009,06,23,02,30,10.90
2009,06,23,02,31,10.90
2009,06,23,02,32,10.90
2009,06,23,02,33,10.90
2009,06,23,02,34,10.90
2009,06,23,02,35,10.90
2009,06,23,02,36,10.90
2009,06,23,02,37,10.90
2009,06,23,02,38,10.90
2009,06,23,02,39,10.90
2009,06,23,02,40,10.90
2009,06,23,02,41,10.80
2009,06,23,02,42,10.80
2009,06,23,02,43,10.80
2009,06,23,02,44,10.80
2009,06,23,02,45,10.80
2009,06,23,02,46,10.80
2009,06,23,02,47,10.80
2009,06,23,02,48,10.80
2009,06,23,02,49,10.70
2009,06,23,02,50,10.70
2009,06,23,02,51,10.70
2009,06,23,02,52,10.70
2009,06,23,02,53,10.70
2009,06,23,02,54,10.70
2009,06,23,02,55,10.70
2009,06,23,02,56,10.70
2009,06,23,02,57,10.60
2009,06,23,02,58,10.60
2009,06,23,02,59,10.60
2009,06,23,03,00,10.60
2009,06,23,03,01,10.60
2009,06,23,03,02,10.60
2009,06,23,03,03,10.60
2009,06,23,03,04,10.60
2009,06,23,03,05,10.60
2009,06,23,03,06,10.60
2009,06,23,03,07,10.60
2009,06,23,03,08,10.60
2009,06,23,03,09,10.60
2009,06,23,03,10,10.60
2009,06,23,03,11,10.60
2009,06,23,03,12,10.60
2009,06,23,03,13,10.60
2009,06,23,03,14,10.60
2009,06,23,03,15,10.60
2009,06,23,03,16,10.60
2009,06,23,03,17,10.60
2009,06,23,03,18,10.60
2009,06,23,03,19,10.50
2009,06,23,03,20,10.40
2009,06,23,03,21,10.40
2009,06,23,03,22,10.40
2009,06,23,03,23,10.40
2009,06,23,03,24,10.40
2009,06,23,03,25,10.40
2009,06,23,03,26,10.40
2009,06,23,03,27,10.40
2009,06,23,03,28,10.40
2009,06,23,03,29,10.40
2009,06,23,03,30,10.40
2009,06,23,03,31,10.40
2009,06,23,03,32,10.40
2009,06,23,03,33,10.40
2009,06,23,03,34,10.40
2009,06,23,03,35,10.40
2009,06,23,03,36,10.40
2009,06,23,03,37,10.40
2009,06,23,03,38,10.40
2009,06,23,03,39,10.30
2009,06,23,03,40,10.30
2009,06,23,03,41,10.30
2009,06,23,03,42,10.30
2009,06,23,03,43,10.30
2009,06,23,03,44,10.30
2009,06,23,03,45,10.30
2009,06,23,03,46,10.30
2009,06,23,03,47,10.30
2009,06,23,03,48,10.30
2009,06,23,03,49,10.20
2009,06,23,03,50,10.20
2009,06,23,03,51,10.20
2009,06,23,03,52,10.20
2009,06,23,03,53,10.20
2009,06,23,03,54,10.20
2009,06,23,03,55,10.20
2009,06,23,03,56,10.20
2009,06,23,03,57,10.20
2009,06,23,03,58,10.10
2009,06,23,03,59,10.10
2009,06,23,04,00,10.10
2009,06,23,04,01,10.10
2009,06,23,04,02,10.10
2009,06,23,04,03,10.10
2009,06,23,04,04,10.10
2009,06,23,04,05,10.10
2009,06,23,04,06,10.10
2009,06,23,04,07,10.10
2009,06,23,04,08,10.10
2009,06,23,04,09,10.10
2009,06,23,04,10,10.10
2009,06,23,04,11,10.00
2009,06,23,04,12,9.90
2009,06,23,04,13,9.90
2009,06,23,04,14,9.90
2009,06,23,04,15,9.90
2009,06,23,04,16,9.90
2009,06,23,04,17,9.90
2009,06,23,04,18,9.90
2009,06,23,04,19,9.90
2009,06,23,04,20,9.80
2009,06,23,04,21,9.80
2009,06,23,04,22,9.80
2009,06,23,04,23,9.80
2009,06,23,04,24,9.80
2009,06,23,04,25,9.70
2009,06,23,04,26,9.70
2009,06,23,04,27,9.70
2009,06,23,04,28,9.70
2009,06,23,04,29,9.70
2009,06,23,04,30,9.70
2009,06,23,04,31,9.70
2009,06,23,04,32,9.70
2009,06,23,04,33,9.70
2009,06,23,04,34,9.70
2009,06,23,04,35,9.70
2009,06,23,04,36,9.70
2009,06,23,04,37,9.70
2009,06,23,04,38,9.70
2009,06,23,04,39,9.60
2009,06,23,04,40,9.60
2009,06,23,04,41,9.60
2009,06,23,04,42,9.60
2009,06,23,04,43,9.60
2009,06,23,04,44,9.60
2009,06,23,04,45,9.60
2009,06,23,04,46,9.60
2009,06,23,04,47,9.60
2009,06,23,04,48,9.60
2009,06,23,04,49,9.60
2009,06,23,04,50,9.60
2009,06,23,04,51,9.60
2009,06,23,04,52,9.60
2009,06,23,04,53,9.60
2009,06,23,04,54,9.50
2009,06,23,04,55,9.50
2009,06,23,04,56,9.50
2009,06,23,04,57,9.50
2009,06,23,04,58,9.50
2009,06,23,04,59,9.50
2009,06,23,05,00,9.40
2009,06,23,05,01,9.40
2009,06,23,05,02,9.40
2009,06,23,05,03,9.40
2009,06,23,05,04,9.40
2009,06,23,05,05,9.40
2009,06,23,05,06,9.40
2009,06,23,05,07,9.40
2009,06,23,05,08,9.30
2009,06,23,05,09,9.30
2009,06,23,05,10,9.30
2009,06,23,05,11,9.30
2009,06,23,05,12,9.30
2009,06,23,05,13,9.30
2009,06,23,05,14,9.30
2009,06,23,05,15,9.30
2009,06,23,05,16,9.30
2009,06,23,05,17,9.30
2009,06,23,05,18,9.30
2009,06,23,05,19,9.20
2009,06,23,05,20,9.20
2009,06,23,05,21,9.20
2009,06,23,05,22,9.20
2009,06,23,05,23,9.20
2009,06,23,05,24,9.20
2009,06,23,05,25,9.20
2009,06,23,05,26,9.20
2009,06,23,05,27,9.20
2009,06,23,05,28,9.20
2009,06,23,05,29,9.20
2009,06,23,05,30,9.20
2009,06,23,05,31,9.20
2009,06,23,05,32,9.20
2009,06,23,05,33,9.20
2009,06,23,05,34,9.20
2009,06,23,05,35,9.20
2009,06,23,05,36,9.20
2009,06,23,05,37,9.20
2009,06,23,05,38,9.20
2009,06,23,05,39,9.20
2009,06,23,05,40,9.20
2009,06,23,05,41,9.20
2009,06,23,05,42,9.20
2009,06,23,05,43,9.20
2009,06,23,05,44,9.20
2009,06,23,05,45,9.20
2009,06,23,05,46,9.20
2009,06,23,05,47,9.20
2009,06,23,05,48,9.20
2009,06,23,05,49,9.20
2009,06,23,05,50,9.20
2009,06,23,05,51,9.20
2009,06,23,05,52,9.20
2009,06,23,05,53,9.20
2009,06,23,05,54,9.20
2009,06,23,05,55,9.20
2009,06,23,05,56,9.20
2009,06,23,05,57,9.20
2009,06,23,05,58,9.20
2009,06,23,05,59,9.20
2009,06,23,06,00,9.20
2009,06,23,06,01,9.20
2009,06,23,06,02,9.20
2009,06,23,06,03,9.20
2009,06,23,06,04,9.20
2009,06,23,06,05,9.20
2009,06,23,06,06,9.20
2009,06,23,06,07,9.20
2009,06,23,06,08,9.20
2009,06,23,06,09,9.20
2009,06,23,06,10,9.20
2009,06,23,06,11,9.20
2009,06,23,06,12,9.20
2009,06,23,06,13,9.20
2009,06,23,06,14,9.20
2009,06,23,06,15,9.20
2009,06,23,06,16,9.20
2009,06,23,06,17,9.20
2009,06,23,06,18,9.20
2009,06,23,06,19,9.20
2009,06,23,06,20,9.20
2009,06,23,06,21,9.20
2009,06,23,06,22,9.20
2009,06,23,06,23,9.30
2009,06,23,06,24,9.30
2009,06,23,06,25,9.30
2009,06,23,06,26,9.30
2009,06,23,06,27,9.30
2009,06,23,06,28,9.30
2009,06,23,06,29,9.40
2009,06,23,06,30,9.40
2009,06,23,06,31,9.40
2009,06,23,06,32,9.40
2009,06,23,06,33,9.40
2009,06,23,06,34,9.50
2009,06,23,06,35,9.50
2009,06,23,06,36,9.50
2009,06,23,06,37,9.50
2009,06,23,06,38,9.50
2009,06,23,06,39,9.60
2009,06,23,06,40,9.60
2009,06,23,06,41,9.60
2009,06,23,06,42,9.60
2009,06,23,06,43,9.70
2009,06,23,06,44,9.70
2009,06,23,06,45,9.70
2009,06,23,06,46,9.70
2009,06,23,06,47,9.70
2009,06,23,06,48,9.70
2009,06,23,06,49,9.70
2009,06,23,06,50,9.80
2009,06,23,06,51,9.80
2009,06,23,06,52,9.90
2009,06,23,06,53,9.90
2009,06,23,06,54,9.90
2009,06,23,06,55,10.00
2009,06,23,06,56,10.10
2009,06,23,06,57,10.10
2009,06,23,06,58,10.20
2009,06,23,06,59,10.20
2009,06,23,07,00,10.30
2009,06,23,07,01,10.30
2009,06,23,07,02,10.40
2009,06,23,07,03,10.40
2009,06,23,07,04,10.40
2009,06,23,07,05,10.50
2009,06,23,07,06,10.60
2009,06,23,07,07,10.60
2009,06,23,07,08,10.60
2009,06,23,07,09,10.60
2009,06,23,07,10,10.70
2009,06,23,07,11,10.70
2009,06,23,07,12,10.80
2009,06,23,07,13,10.80
2009,06,23,07,14,10.80
2009,06,23,07,15,10.90
2009,06,23,07,16,10.90
2009,06,23,07,17,11.00
2009,06,23,07,18,11.10
2009,06,23,07,19,11.10
2009,06,23,07,20,11.10
2009,06,23,07,21,11.20
2009,06,23,07,22,11.20
2009,06,23,07,23,11.30
2009,06,23,07,24,11.40
2009,06,23,07,25,11.40
2009,06,23,07,26,11.50
2009,06,23,07,27,11.60
2009,06,23,07,28,11.60
2009,06,23,07,29,11.70
2009,06,23,07,30,11.80
2009,06,23,07,31,11.80
2009,06,23,07,32,11.90
2009,06,23,07,33,12.00
2009,06,23,07,34,12.10
2009,06,23,07,35,12.20
2009,06,23,07,36,12.30
2009,06,23,07,37,12.40
2009,06,23,07,38,12.50
2009,06,23,07,39,12.60
2009,06,23,07,40,12.70
2009,06,23,07,41,12.80
2009,06,23,07,42,12.80
2009,06,23,07,43,12.80
2009,06,23,07,44,12.90
2009,06,23,07,45,12.90
2009,06,23,07,46,13.00
2009,06,23,07,47,13.00
2009,06,23,07,48,13.10
2009,06,23,07,49,13.10
2009,06,23,07,50,13.20
2009,06,23,07,51,13.20
2009,06,23,07,52,13.20
2009,06,23,07,53,13.20
2009,06,23,07,54,13.30
2009,06,23,07,55,13.30
2009,06,23,07,56,13.30
2009,06,23,07,57,13.40
2009,06,23,07,58,13.40
2009,06,23,07,59,13.40
2009,06,23,08,00,13.50
2009,06,23,08,01,13.50
2009,06,23,08,02,13.60
2009,06,23,08,03,13.60
2009,06,23,08,04,13.70
2009,06,23,08,05,13.70
2009,06,23,08,06,13.70
2009,06,23,08,07,13.70
2009,06,23,08,08,13.80
2009,06,23,08,09,13.80
2009,06,23,08,10,13.90
2009,06,23,08,11,13.90
2009,06,23,08,12,14.00
2009,06,23,08,13,14.00
2009,06,23,08,14,14.10
2009,06,23,08,15,14.20
2009,06,23,08,16,14.20
2009,06,23,08,17,14.30
2009,06,23,08,18,14.40
2009,06,23,08,19,14.50
2009,06,23,08,20,14.50
2009,06,23,08,21,14.60
2009,06,23,08,22,14.60
2009,06,23,08,23,14.70
2009,06,23,08,24,14.70
2009,06,23,08,25,14.80
2009,06,23,08,26,14.80
2009,06,23,08,27,14.90
2009,06,23,08,28,14.90
2009,06,23,08,29,14.90
2009,06,23,08,30,15.00
2009,06,23,08,31,15.00
2009,06,23,08,32,15.10
2009,06,23,08,33,15.10
2009,06,23,08,34,15.20
2009,06,23,08,35,15.20
2009,06,23,08,36,15.30
2009,06,23,08,37,15.30
2009,06,23,08,38,15.30
2009,06,23,08,39,15.30
2009,06,23,08,40,15.30
2009,06,23,08,41,15.30
2009,06,23,08,42,15.30
2009,06,23,08,43,15.30
2009,06,23,08,44,15.30
2009,06,23,08,45,15.30
2009,06,23,08,46,15.30
2009,06,23,08,47,15.30
2009,06,23,08,48,15.30
2009,06,23,08,49,15.30
2009,06,23,08,50,15.30
2009,06,23,08,51,15.30
2009,06,23,08,52,15.40
2009,06,23,08,53,15.40
2009,06,23,08,54,15.40
2009,06,23,08,55,15.50
2009,06,23,08,56,15.50
2009,06,23,08,57,15.50
2009,06,23,08,58,15.50
2009,06,23,08,59,15.50
2009,06,23,09,00,15.50
2009,06,23,09,01,15.50
2009,06,23,09,02,15.50
2009,06,23,09,03,15.60
2009,06,23,09,04,15.60
2009,06,23,09,05,15.50
2009,06,23,09,06,15.50
2009,06,23,09,07,15.50
2009,06,23,09,08,15.50
2009,06,23,09,09,15.50
2009,06,23,09,10,15.50
2009,06,23,09,11,15.50
2009,06,23,09,12,15.50
2009,06,23,09,13,15.50
2009,06,23,09,14,15.50
2009,06,23,09,15,15.60
2009,06,23,09,16,15.60
2009,06,23,09,17,15.60
2009,06,23,09,18,15.70
2009,06,23,09,19,15.70
2009,06,23,09,20,15.70
2009,06,23,09,21,15.80
2009,06,23,09,22,15.80
2009,06,23,09,23,15.80
2009,06,23,09,24,15.80
2009,06,23,09,25,15.90
2009,06,23,09,26,15.90
2009,06,23,09,27,15.90
2009,06,23,09,28,15.90
2009,06,23,09,29,16.00
2009,06,23,09,30,16.10
2009,06,23,09,31,16.10
2009,06,23,09,32,16.10
2009,06,23,09,33,16.10
2009,06,23,09,34,16.10
2009,06,23,09,35,16.20
2009,06,23,09,36,16.20
2009,06,23,09,37,16.20
2009,06,23,09,38,16.20
2009,06,23,09,39,16.20
2009,06,23,09,40,16.20
2009,06,23,09,41,16.20
2009,06,23,09,42,16.30
2009,06,23,09,43,16.30
2009,06,23,09,44,16.30
2009,06,23,09,45,16.40
2009,06,23,09,46,16.40
2009,06,23,09,47,16.50
2009,06,23,09,48,16.60
2009,06,23,09,49,16.70
2009,06,23,09,50,16.70
2009,06,23,09,51,16.70
2009,06,23,09,52,16.70
2009,06,23,09,53,16.80
2009,06,23,09,54,16.80
2009,06,23,09,55,16.80
2009,06,23,09,56,16.90
2009,06,23,09,57,16.90
2009,06,23,09,58,16.90
2009,06,23,09,59,16.90
2009,06,23,10,00,16.90
2009,06,23,10,01,16.90
2009,06,23,10,02,16.90
2009,06,23,10,03,16.90
2009,06,23,10,04,16.90
2009,06,23,10,05,16.90
2009,06,23,10,06,16.90
2009,06,23,10,07,16.90
2009,06,23,10,08,16.90
2009,06,23,10,09,17.00
2009,06,23,10,10,17.00
2009,06,23,10,11,17.10
2009,06,23,10,12,17.10
2009,06,23,10,13,17.20
2009,06,23,10,14,17.30
2009,06,23,10,15,17.30
2009,06,23,10,16,17.40
2009,06,23,10,17,17.40
2009,06,23,10,18,17.40
2009,06,23,10,19,17.50
2009,06,23,10,20,17.40
2009,06,23,10,21,17.40
2009,06,23,10,22,17.40
2009,06,23,10,23,17.50
2009,06,23,10,24,17.50
2009,06,23,10,25,17.60
2009,06,23,10,26,17.70
2009,06,23,10,27,17.70
2009,06,23,10,28,17.60
2009,06,23,10,29,17.60
2009,06,23,10,30,17.60
2009,06,23,10,31,17.70
2009,06,23,10,32,17.70
2009,06,23,10,33,17.80
2009,06,23,10,34,17.90
2009,06,23,10,35,17.90
2009,06,23,10,36,17.90
2009,06,23,10,37,17.90
2009,06,23,10,38,17.90
2009,06,23,10,39,17.90
2009,06,23,10,40,17.90
2009,06,23,10,41,17.90
2009,06,23,10,42,18.00
2009,06,23,10,43,18.10
2009,06,23,10,44,18.10
2009,06,23,10,45,18.20
2009,06,23,10,46,18.20
2009,06,23,10,47,18.30
2009,06,23,10,48,18.40
2009,06,23,10,49,18.50
2009,06,23,10,50,18.60
2009,06,23,10,51,18.70
2009,06,23,10,52,18.80
2009,06,23,10,53,18.90
2009,06,23,10,54,19.00
2009,06,23,10,55,19.10
2009,06,23,10,56,19.10
2009,06,23,10,57,19.20
2009,06,23,10,58,19.30
2009,06,23,10,59,19.30
2009,06,23,11,00,19.40
2009,06,23,11,01,19.40
2009,06,23,11,02,19.40
2009,06,23,11,03,19.30
2009,06,23,11,04,19.30
2009,06,23,11,05,19.30
2009,06,23,11,06,19.30
2009,06,23,11,07,19.30
2009,06,23,11,08,19.30
2009,06,23,11,09,19.30
2009,06,23,11,10,19.30
2009,06,23,11,11,19.30
2009,06,23,11,12,19.30
2009,06,23,11,13,19.30
2009,06,23,11,14,19.40
2009,06,23,11,15,19.40
2009,06,23,11,16,19.40
2009,06,23,11,17,19.40
2009,06,23,11,18,19.40
2009,06,23,11,19,19.50
2009,06,23,11,20,19.60
2009,06,23,11,21,19.70
2009,06,23,11,22,19.60
2009,06,23,11,23,19.60
2009,06,23,11,24,19.60
2009,06,23,11,25,19.70
2009,06,23,11,26,19.70
2009,06,23,11,27,19.80
2009,06,23,11,28,19.90
2009,06,23,11,29,19.90
2009,06,23,11,30,19.90
2009,06,23,11,31,19.90
2009,06,23,11,32,19.90
2009,06,23,11,33,19.90
2009,06,23,11,34,19.90
2009,06,23,11,35,19.60
2009,06,23,11,36,19.50
2009,06,23,11,37,19.30
2009,06,23,11,38,19.10
2009,06,23,11,39,19.10
2009,06,23,11,40,19.20
2009,06,23,11,41,19.30
2009,06,23,11,42,19.30
2009,06,23,11,43,19.40
2009,06,23,11,44,19.50
2009,06,23,11,45,19.50
2009,06,23,11,46,19.60
2009,06,23,11,47,19.50
2009,06,23,11,48,19.50
2009,06,23,11,49,19.50
2009,06,23,11,50,19.50
2009,06,23,11,51,19.50
2009,06,23,11,52,19.50
2009,06,23,11,53,19.60
2009,06,23,11,54,19.60
2009,06,23,11,55,19.70
2009,06,23,11,56,19.70
2009,06,23,11,57,19.70
2009,06,23,11,58,19.70
2009,06,23,11,59,19.60
2009,06,23,12,00,19.50
2009,06,23,12,01,19.50
2009,06,23,12,02,19.50
2009,06,23,12,03,19.50
2009,06,23,12,04,19.60
2009,06,23,12,05,19.60
2009,06,23,12,06,19.70
2009,06,23,12,07,19.70
2009,06,23,12,08,19.70
2009,06,23,12,09,19.70
2009,06,23,12,10,19.70
2009,06,23,12,11,19.70
2009,06,23,12,12,19.60
2009,06,23,12,13,19.60
2009,06,23,12,14,19.50
2009,06,23,12,15,19.50
2009,06,23,12,16,19.50
2009,06,23,12,17,19.60
2009,06,23,12,18,19.70
2009,06,23,12,19,19.70
2009,06,23,12,20,19.80
2009,06,23,12,21,19.70
2009,06,23,12,22,19.60
2009,06,23,12,23,19.50
2009,06,23,12,24,19.50
2009,06,23,12,25,19.50
2009,06,23,12,26,19.50
2009,06,23,12,27,19.50
2009,06,23,12,28,19.50
2009,06,23,12,29,19.50
2009,06,23,12,30,19.50
2009,06,23,12,31,19.50
2009,06,23,12,32,19.50
2009,06,23,12,33,19.50
2009,06,23,12,34,19.40
2009,06,23,12,35,19.40
2009,06,23,12,36,19.50
2009,06,23,12,37,19.60
2009,06,23,12,38,19.70
2009,06,23,12,39,19.90
2009,06,23,12,40,20.00
2009,06,23,12,41,20.20
2009,06,23,12,42,20.30
2009,06,23,12,43,20.40
2009,06,23,12,44,20.50
2009,06,23,12,45,20.70
2009,06,23,12,46,20.70
2009,06,23,12,47,20.80
2009,06,23,12,48,20.90
2009,06,23,12,49,20.90
2009,06,23,12,50,20.90
2009,06,23,12,51,21.00
2009,06,23,12,52,21.00
2009,06,23,12,53,21.00
2009,06,23,12,54,21.10
2009,06,23,12,55,21.20
2009,06,23,12,56,21.30
2009,06,23,12,57,21.40
2009,06,23,12,58,21.40
2009,06,23,12,59,21.60
2009,06,23,13,00,21.60
2009,06,23,13,01,21.50
2009,06,23,13,02,21.40
2009,06,23,13,03,21.40
2009,06,23,13,04,21.40
2009,06,23,13,05,21.30
2009,06,23,13,06,21.20
2009,06,23,13,07,21.20
2009,06,23,13,08,21.10
2009,06,23,13,09,20.90
2009,06,23,13,10,20.70
2009,06,23,13,11,20.60
2009,06,23,13,12,20.40
2009,06,23,13,13,20.40
2009,06,23,13,14,20.30
2009,06,23,13,15,20.30
2009,06,23,13,16,20.40
2009,06,23,13,17,20.40
2009,06,23,13,18,20.50
2009,06,23,13,19,20.50
2009,06,23,13,20,20.40
2009,06,23,13,21,20.50
2009,06,23,13,22,20.50
2009,06,23,13,23,20.50
2009,06,23,13,24,20.50
2009,06,23,13,25,20.50
2009,06,23,13,26,20.40
2009,06,23,13,27,20.40
2009,06,23,13,28,20.30
2009,06,23,13,29,20.30
2009,06,23,13,30,20.20
2009,06,23,13,31,20.20
2009,06,23,13,32,20.20
2009,06,23,13,33,20.20
2009,06,23,13,34,20.20
2009,06,23,13,35,20.10
2009,06,23,13,36,20.00
2009,06,23,13,37,19.90
2009,06,23,13,38,19.90
2009,06,23,13,39,19.90
2009,06,23,13,40,19.90
2009,06,23,13,41,19.90
2009,06,23,13,42,19.90
2009,06,23,13,43,19.90
2009,06,23,13,44,19.90
2009,06,23,13,45,19.90
2009,06,23,13,46,19.90
2009,06,23,13,47,19.90
2009,06,23,13,48,19.90
2009,06,23,13,49,19.90
2009,06,23,13,50,19.90
2009,06,23,13,51,19.80
2009,06,23,13,52,19.80
2009,06,23,13,53,19.80
2009,06,23,13,54,19.80
2009,06,23,13,55,19.80
2009,06,23,13,56,19.80
2009,06,23,13,57,19.80
2009,06,23,13,58,19.80
2009,06,23,13,59,19.90
2009,06,23,14,00,19.90
2009,06,23,14,01,19.90
2009,06,23,14,02,19.90
2009,06,23,14,03,19.90
2009,06,23,14,04,20.00
2009,06,23,14,05,20.10
2009,06,23,14,06,20.10
2009,06,23,14,07,20.10
2009,06,23,14,08,20.10
2009,06,23,14,09,20.10
2009,06,23,14,10,20.20
2009,06,23,14,11,20.20
2009,06,23,14,12,20.20
2009,06,23,14,13,20.20
2009,06,23,14,14,20.10
2009,06,23,14,15,20.10
2009,06,23,14,16,20.00
2009,06,23,14,17,19.90
2009,06,23,14,18,19.90
2009,06,23,14,19,19.90
2009,06,23,14,20,19.90
2009,06,23,14,21,19.90
2009,06,23,14,22,19.80
2009,06,23,14,23,19.80
2009,06,23,14,24,19.80
2009,06,23,14,25,19.80
2009,06,23,14,26,19.80
2009,06,23,14,27,19.70
2009,06,23,14,28,19.70
2009,06,23,14,29,19.70
2009,06,23,14,30,19.70
2009,06,23,14,31,19.80
2009,06,23,14,32,19.80
2009,06,23,14,33,19.80
2009,06,23,14,34,19.80
2009,06,23,14,35,19.80
2009,06,23,14,36,19.80
2009,06,23,14,37,19.80
2009,06,23,14,38,19.90
2009,06,23,14,39,19.80
2009,06,23,14,40,19.80
2009,06,23,14,41,19.80
2009,06,23,14,42,19.80
2009,06,23,14,43,19.90
2009,06,23,14,44,19.90
2009,06,23,14,45,19.90
2009,06,23,14,46,19.90
2009,06,23,14,47,19.90
2009,06,23,14,48,19.90
2009,06,23,14,49,19.90
2009,06,23,14,50,19.90
2009,06,23,14,51,19.90
2009,06,23,14,52,19.90
2009,06,23,14,53,19.90
2009,06,23,14,54,19.90
2009,06,23,14,55,19.90
2009,06,23,14,56,19.90
2009,06,23,14,57,19.90
2009,06,23,14,58,19.90
2009,06,23,14,59,19.80
2009,06,23,15,00,19.80
2009,06,23,15,01,19.70
2009,06,23,15,02,19.70
2009,06,23,15,03,19.70
2009,06,23,15,04,19.70
2009,06,23,15,05,19.70
2009,06,23,15,06,19.80
2009,06,23,15,07,19.80
2009,06,23,15,08,19.90
2009,06,23,15,09,19.90
2009,06,23,15,10,20.00
2009,06,23,15,11,20.10
2009,06,23,15,12,20.10
2009,06,23,15,13,20.20
2009,06,23,15,14,20.20
2009,06,23,15,15,20.20
2009,06,23,15,16,20.20
2009,06,23,15,17,20.20
2009,06,23,15,18,20.20
2009,06,23,15,19,20.20
2009,06,23,15,20,20.30
2009,06,23,15,21,20.40
2009,06,23,15,22,20.40
2009,06,23,15,23,20.40
2009,06,23,15,24,20.50
2009,06,23,15,25,20.50
2009,06,23,15,26,20.60
2009,06,23,15,27,20.60
2009,06,23,15,28,20.60
2009,06,23,15,29,20.60
2009,06,23,15,30,20.50
2009,06,23,15,31,20.50
2009,06,23,15,32,20.40
2009,06,23,15,33,20.40
2009,06,23,15,34,20.40
2009,06,23,15,35,20.30
2009,06,23,15,36,20.20
2009,06,23,15,37,20.20
2009,06,23,15,38,20.20
2009,06,23,15,39,20.20
2009,06,23,15,40,20.20
2009,06,23,15,41,20.20
2009,06,23,15,42,20.20
2009,06,23,15,43,20.20
2009,06,23,15,44,20.20
2009,06,23,15,45,20.10
2009,06,23,15,46,20.10
2009,06,23,15,47,20.00
2009,06,23,15,48,19.90
2009,06,23,15,49,19.90
2009,06,23,15,50,19.90
2009,06,23,15,51,19.90
2009,06,23,15,52,19.90
2009,06,23,15,53,19.90
2009,06,23,15,54,19.90
2009,06,23,15,55,19.90
2009,06,23,15,56,19.90
2009,06,23,15,57,19.90
2009,06,23,15,58,19.80
2009,06,23,15,59,19.80
2009,06,23,16,00,19.70
2009,06,23,16,01,19.60
2009,06,23,16,02,19.60
2009,06,23,16,03,19.50
2009,06,23,16,04,19.50
2009,06,23,16,05,19.50
2009,06,23,16,06,19.50
2009,06,23,16,07,19.50
2009,06,23,16,08,19.60
2009,06,23,16,09,19.60
2009,06,23,16,10,19.60
2009,06,23,16,11,19.60
2009,06,23,16,12,19.70
2009,06,23,16,13,19.70
2009,06,23,16,14,19.80
2009,06,23,16,15,19.90
2009,06,23,16,16,19.90
2009,06,23,16,17,20.00
2009,06,23,16,18,20.10
2009,06,23,16,19,20.20
2009,06,23,16,20,20.20
2009,06,23,16,21,20.20
2009,06,23,16,22,20.20
2009,06,23,16,23,20.20
2009,06,23,16,24,20.20
2009,06,23,16,25,20.20
2009,06,23,16,26,20.20
2009,06,23,16,27,20.20
2009,06,23,16,28,20.30
2009,06,23,16,29,20.30
2009,06,23,16,30,20.30
2009,06,23,16,31,20.30
2009,06,23,16,32,20.30
2009,06,23,16,33,20.30
2009,06,23,16,34,20.40
2009,06,23,16,35,20.40
2009,06,23,16,36,20.30
2009,06,23,16,37,20.40
2009,06,23,16,38,20.40
2009,06,23,16,39,20.40
2009,06,23,16,40,20.40
2009,06,23,16,41,20.40
2009,06,23,16,42,20.40
2009,06,23,16,43,20.40
2009,06,23,16,44,20.30
2009,06,23,16,45,20.30
2009,06,23,16,46,20.30
2009,06,23,16,47,20.30
2009,06,23,16,48,20.20
2009,06,23,16,49,20.20
2009,06,23,16,50,20.20
2009,06,23,16,51,20.20
2009,06,23,16,52,20.20
2009,06,23,16,53,20.20
2009,06,23,16,54,20.10
2009,06,23,16,55,20.10
2009,06,23,16,56,20.10
2009,06,23,16,57,20.00
2009,06,23,16,58,19.90
2009,06,23,16,59,19.90
2009,06,23,17,00,19.90
2009,06,23,17,01,19.80
2009,06,23,17,02,19.70
2009,06,23,17,03,19.60
2009,06,23,17,04,19.50
2009,06,23,17,05,19.40
2009,06,23,17,06,19.30
2009,06,23,17,07,19.30
2009,06,23,17,08,19.30
2009,06,23,17,09,19.30
2009,06,23,17,10,19.30
2009,06,23,17,11,19.30
2009,06,23,17,12,19.30
2009,06,23,17,13,19.40
2009,06,23,17,14,19.40
2009,06,23,17,15,19.40
2009,06,23,17,16,19.30
2009,06,23,17,17,19.30
2009,06,23,17,18,19.30
2009,06,23,17,19,19.30
2009,06,23,17,20,19.30
2009,06,23,17,21,19.20
2009,06,23,17,22,19.20
2009,06,23,17,23,19.20
2009,06,23,17,24,19.20
2009,06,23,17,25,19.20
2009,06,23,17,26,19.20
2009,06,23,17,27,19.20
2009,06,23,17,28,19.20
2009,06,23,17,29,19.20
2009,06,23,17,30,19.10
2009,06,23,17,31,19.20